R/V Knorr Calliope CSV data file - KN193_II  (Time stamps are GMT)
Date, Time_GMT, Depth12, Depth35, Air_Temp, WXT5_Ta, WXT5_Pa, dec_lat, dec_lon, EDO_knt, GPS_COG, GPS_SOG, Gyro, IMET_BPR, IMET_SWR, WXT5_Ri, WXT5_Rc, HRH, WXT5_Ua, WXT5_Dm, WXT5_Sm, SBE45C, SBE45S, SBE45T, Salinity, SSCND, Fluorometer, SSTMP, SSV, Wnd_Dir, TWD_5, Wnd_Spd, TWS_5, HdChkSum=52
2008/04/17, 00:00:43, 262.00, 0.00, -11.88, -11.40, 992.0, 79.0295400, 11.3755500, , 201.90, 0.40, 331.30, 992.86, 2.50, 0.0, 38.53, 71.81, 76.4, 356, 16.6, 31.42100, 34.59280, 3.1058, 34.5928, 31.4210, 139.60, 1.4257, 1455.03, 353.40, 324.8, 12.18, 17.0, 52
2008/04/17, 00:01:43, 261.90, 0.00, -12.05, -11.30, 992.0, 79.0295320, 11.3755480, , 159.90, 0.57, 329.20, 993.32, 2.60, 0.0, 38.53, 71.40, 76.3, 5, 15.8, 31.41780, 34.59210, 3.1028, 34.5921, 31.4178, 141.10, 1.4260, 1455.03, 336.40, 332.1, 12.81, 15.7, 52
2008/04/17, 00:02:43, 262.40, 0.00, -11.85, -11.40, 992.3, 79.0295020, 11.3755150, , 143.60, 0.42, 330.40, 993.39, 2.60, 0.0, 38.53, 72.50, 77.3, 1, 14.8, 31.42030, 34.59150, 3.1062, 34.5915, 31.4203, 141.10, 1.4268, 1455.03, 349.00, 330.1, 12.16, 15.0, 52
2008/04/17, 00:03:43, 261.60, 0.00, -11.66, -11.20, 992.1, 79.0295350, 11.3753800, , 146.00, 1.28, 330.80, 993.14, 2.70, 0.0, 38.53, 73.79, 80.0, 0, 15.3, 31.41340, 34.59210, 3.0978, 34.5921, 31.4134, 140.20, 1.4273, 1455.03, 343.60, 326.9, 12.11, 15.3, 52
2008/04/17, 00:04:43, 262.50, 0.00, -11.38, -11.00, 992.0, 79.0295250, 11.3755950, , 250.70, 0.70, 330.80, 993.12, 2.60, 0.0, 38.53, 74.83, 80.5, 7, 15.0, 31.42080, 34.59170, 3.1066, 34.5917, 31.4208, 137.70, 1.4273, 1455.03, 343.30, 334.2, 11.93, 15.3, 52
2008/04/17, 00:05:43, 262.20, 0.00, -11.69, -10.90, 992.0, 79.0295550, 11.3757050, , 168.80, 1.11, 330.40, 993.29, 2.90, 0.0, 38.53, 74.50, 80.8, 3, 16.4, 31.41490, 34.59130, 3.1003, 34.5913, 31.4149, 139.20, 1.4268, 1455.03, 344.20, 329.5, 11.96, 16.1, 52
2008/04/17, 00:06:43, 260.60, 0.00, -12.02, -11.00, 992.0, 79.0295770, 11.3758800, , 26.60, 0.55, 330.20, 993.18, 2.80, 0.0, 38.53, 72.45, 78.2, 5, 15.8, 31.42740, 34.59210, 3.1138, 34.5921, 31.4274, 140.20, 1.4258, 1455.03, 341.70, 331.5, 12.71, 15.7, 52
2008/04/17, 00:07:43, 259.90, 0.00, -11.82, -11.30, 992.1, 79.0295970, 11.3761400, , 343.00, 0.59, 330.80, 993.59, 2.80, 0.0, 38.53, 72.80, 78.0, 2, 16.1, 31.43700, 34.59270, 3.1241, 34.5927, 31.4370, 140.80, 1.4249, 1455.02, 350.00, 330.2, 11.60, 15.4, 52
2008/04/17, 00:08:43, 260.00, 0.00, -11.94, -11.20, 991.9, 79.0296330, 11.3762400, , 76.30, 0.52, 329.30, 993.28, 3.10, 0.0, 38.53, 71.61, 77.8, 359, 13.3, 31.42130, 34.59190, 3.1070, 34.5919, 31.4213, 140.20, 1.4241, 1455.02, 340.70, 324.6, 12.95, 13.3, 52
2008/04/17, 00:09:43, 261.50, 0.00, -11.99, -11.40, 992.5, 79.0296050, 11.3760980, , 204.00, 0.60, 330.10, 993.44, 2.90, 0.0, 38.53, 71.35, 77.0, 12, 15.0, 31.42270, 34.59080, 3.1095, 34.5908, 31.4227, 140.50, 1.4235, 1455.02, 349.30, 340.0, 12.51, 14.7, 52
2008/04/17, 00:10:43, 262.20, 0.00, -11.99, -11.40, 992.4, 79.0295650, 11.3756770, , 242.30, 0.69, 330.10, 993.49, 2.90, 0.0, 38.53, 71.35, 79.7, 18, 13.1, 31.41540, 34.59220, 3.1000, 34.5922, 31.4154, 139.00, 1.4224, 1455.01, 0.90, 346.9, 11.45, 13.5, 52
2008/04/17, 00:11:43, 263.00, 0.00, -11.80, -11.20, 992.5, 79.0295220, 11.3752800, , 7.40, 0.29, 329.90, 993.41, 3.00, 0.0, 38.53, 72.98, 80.0, 4, 16.0, 31.41090, 34.59180, 3.0953, 34.5918, 31.4109, 136.80, 1.4214, 1455.01, 357.80, 332.7, 10.81, 16.3, 52
2008/04/17, 00:12:43, 263.40, 0.00, -11.85, -11.10, 992.6, 79.0294920, 11.3750870, , 16.50, 0.94, 328.70, 993.29, 3.30, 0.0, 38.53, 73.11, 82.6, 8, 15.6, 31.41070, 34.59230, 3.0946, 34.5923, 31.4107, 139.20, 1.4203, 1455.00, 347.80, 336.7, 10.63, 16.2, 52
2008/04/17, 00:13:43, 263.40, 0.00, -11.55, -10.90, 992.3, 79.0294430, 11.3748030, , 206.80, 0.73, 330.60, 993.35, 3.10, 0.0, 38.53, 75.46, 80.5, 3, 14.1, 31.41590, 34.59010, 3.1025, 34.5901, 31.4159, 135.90, 1.4196, 1455.00, 353.20, 331.4, 11.73, 14.0, 52
2008/04/17, 00:14:43, 263.90, 0.00, -11.60, -11.00, 991.7, 79.0294150, 11.3746880, , 347.70, 0.78, 330.20, 993.43, 3.00, 0.0, 38.53, 74.86, 81.5, 1, 15.8, 31.44080, 34.59210, 3.1289, 34.5921, 31.4408, 138.00, 1.4187, 1455.00, 350.40, 328.9, 11.23, 15.8, 52
2008/04/17, 00:15:43, 264.00, 0.00, -12.02, -11.10, 992.1, 79.0294620, 11.3745030, , 293.70, 1.03, 329.70, 993.35, 3.30, 0.0, 38.53, 74.63, 80.8, 6, 17.5, 31.41810, 34.59160, 3.1036, 34.5916, 31.4181, 136.50, 1.4186, 1454.99, 344.20, 333.0, 12.20, 17.8, 52
2008/04/17, 00:16:43, 264.00, 0.00, -11.85, -11.20, 992.4, 79.0294130, 11.3744180, , 234.50, 0.67, 330.50, 993.39, 3.10, 0.0, 38.53, 74.93, 79.2, 8, 16.2, 31.41640, 34.59160, 3.1017, 34.5916, 31.4164, 138.70, 1.4194, 1455.00, 349.10, 336.8, 13.06, 16.5, 52
2008/04/17, 00:17:43, 265.20, 0.00, -12.02, -11.30, 992.3, 79.0294000, 11.3742330, , 228.50, 0.68, 329.60, 993.45, 3.30, 0.0, 38.53, 73.41, 78.4, 9, 15.3, 31.41220, 34.59180, 3.0967, 34.5918, 31.4122, 139.60, 1.4207, 1455.00, 354.40, 334.6, 12.28, 14.9, 52
2008/04/17, 00:18:43, 265.30, 0.00, -12.10, -11.50, 992.3, 79.0293930, 11.3742120, , 94.20, 0.63, 331.40, 993.36, 3.50, 0.0, 38.53, 71.94, 78.3, 358, 15.7, 31.41170, 34.59140, 3.0965, 34.5914, 31.4117, 139.90, 1.4215, 1455.01, 350.20, 326.2, 12.44, 16.0, 52
2008/04/17, 00:19:44, 264.60, 0.00, -12.05, -11.50, 992.3, 79.0294230, 11.3743880, , 221.80, 0.55, 329.60, 993.31, 3.50, 0.0, 38.53, 72.73, 79.9, 4, 15.2, 31.40680, 34.59110, 3.0912, 34.5911, 31.4068, 137.50, 1.4227, 1455.01, 339.70, 330.8, 11.57, 14.7, 52
2008/04/17, 00:20:43, 263.10, 0.00, -11.71, -11.30, 992.2, 79.0294470, 11.3745030, , 174.20, 0.70, 330.20, 993.38, 3.60, 0.0, 38.53, 74.12, 82.7, 5, 15.9, 31.40850, 34.59210, 3.0922, 34.5921, 31.4085, 139.00, 1.4234, 1455.02, 344.40, 333.7, 11.66, 16.3, 52
2008/04/17, 00:21:43, 263.80, 0.00, -11.74, -11.20, 992.3, 79.0294220, 11.3745280, , 181.70, 0.46, 329.90, 993.33, 3.30, 0.0, 38.53, 75.33, 80.6, 1, 16.2, 31.40640, 34.59230, 3.0897, 34.5923, 31.4064, 138.00, 1.4232, 1455.01, 350.90, 330.2, 11.93, 16.2, 52
2008/04/17, 00:22:43, 265.30, 0.00, -11.66, -11.20, 992.3, 79.0294520, 11.3746050, , 46.00, 1.13, 329.90, 993.41, 3.60, 0.0, 38.53, 74.88, 81.8, 1, 14.9, 31.40520, 34.59200, 3.0886, 34.5920, 31.4052, 137.70, 1.4232, 1455.02, 340.80, 328.2, 11.97, 14.5, 52
2008/04/17, 00:23:43, 264.20, 0.00, -11.85, -11.30, 992.5, 79.0294370, 11.3746850, , 299.50, 0.53, 331.10, 993.54, 3.10, 0.0, 38.54, 74.27, 81.7, 6, 14.0, 31.40930, 34.59180, 3.0934, 34.5918, 31.4093, 140.50, 1.4230, 1455.01, 349.20, 333.5, 11.59, 13.8, 52
2008/04/17, 00:24:43, 264.90, 0.00, -11.80, -11.20, 992.4, 79.0294730, 11.3746680, , 348.10, 0.88, 329.70, 993.59, 3.70, 0.0, 38.54, 74.80, 84.4, 7, 16.4, 31.41980, 34.59160, 3.1055, 34.5916, 31.4198, 139.20, 1.4230, 1455.01, 347.30, 334.3, 10.30, 15.8, 52
2008/04/17, 00:25:44, 263.90, 0.00, -11.77, -11.00, 992.2, 79.0294520, 11.3748830, , 33.10, 0.42, 330.40, 993.50, 3.40, 0.0, 38.54, 76.49, 84.3, 2, 15.3, 31.42740, 34.59170, 3.1141, 34.5917, 31.4274, 136.50, 1.4233, 1455.02, 344.60, 330.5, 12.42, 15.4, 52
2008/04/17, 00:26:43, 263.90, 0.00, -11.94, -11.10, 992.3, 79.0294670, 11.3751280, , 334.70, 1.10, 330.40, 993.36, 3.60, 0.0, 38.54, 76.44, 84.4, 1, 16.2, 31.41510, 34.59200, 3.0998, 34.5920, 31.4151, 139.00, 1.4231, 1455.01, 350.30, 328.7, 11.86, 15.9, 52
2008/04/17, 00:27:43, 261.80, 0.00, -11.63, -11.20, 992.3, 79.0295500, 11.3750650, , 214.20, 0.72, 330.80, 993.64, 3.60, 0.0, 38.54, 76.29, 82.6, 5, 13.7, 31.41380, 34.59150, 3.0989, 34.5915, 31.4138, 138.40, 1.4229, 1455.01, 352.20, 332.2, 12.78, 13.4, 52
2008/04/17, 00:28:44, 262.80, 0.00, -11.66, -11.10, 992.4, 79.0294980, 11.3751750, , 226.20, 0.30, 329.20, 993.38, 3.80, 0.0, 38.54, 77.27, 84.8, 4, 16.1, 31.43570, 34.59080, 3.1244, 34.5908, 31.4357, 138.00, 1.4223, 1455.01, 345.00, 330.4, 10.91, 16.2, 52
2008/04/17, 00:29:43, 262.50, 0.00, -11.77, -11.00, 992.1, 79.0294950, 11.3751680, , 195.20, 0.47, 329.50, 993.67, 3.60, 0.0, 38.54, 77.04, 85.6, 1, 17.1, 31.41590, 34.59110, 3.1016, 34.5911, 31.4159, 139.90, 1.4209, 1455.00, 348.00, 327.9, 12.48, 16.9, 52
2008/04/17, 00:30:44, 263.10, 0.00, -11.71, -11.10, 992.0, 79.0295120, 11.3751530, , 51.80, 0.71, 330.30, 993.56, 3.70, 0.0, 38.54, 76.69, 84.7, 4, 16.8, 31.41320, 34.59140, 3.0982, 34.5914, 31.4132, 139.20, 1.4195, 1455.00, 342.00, 332.3, 12.51, 16.7, 52
2008/04/17, 00:31:44, 261.70, 0.00, -11.49, -11.20, 992.5, 79.0294870, 11.3754170, , 171.20, 0.88, 331.30, 993.61, 3.80, 0.0, 38.54, 77.39, 84.2, 0, 18.0, 31.41110, 34.59170, 3.0957, 34.5917, 31.4111, 139.90, 1.4189, 1455.00, 346.60, 327.7, 13.69, 18.0, 52
2008/04/17, 00:32:43, 261.10, 0.00, -11.38, -11.10, 992.3, 79.0295700, 11.3755600, , 167.50, 0.77, 329.60, 993.35, 3.90, 0.0, 38.54, 78.59, 87.1, 6, 17.5, 31.41200, 34.59070, 3.0976, 34.5907, 31.4120, 139.00, 1.4185, 1454.99, 336.20, 331.6, 13.72, 17.2, 52
2008/04/17, 00:33:43, 261.20, 0.00, -11.38, -10.90, 992.2, 79.0295630, 11.3757870, , 257.70, 0.31, 331.10, 993.42, 3.80, 0.0, 38.54, 78.59, 86.2, 5, 15.5, 31.42030, 34.59090, 3.1068, 34.5909, 31.4203, 138.00, 1.4182, 1454.99, 343.50, 332.7, 13.00, 15.6, 52
2008/04/17, 00:34:43, 264.40, 0.00, -11.85, -11.10, 992.4, 79.0295870, 11.3757570, , 345.60, 1.05, 329.70, 993.44, 3.80, 0.0, 38.54, 77.74, 84.1, 3, 15.5, 31.41170, 34.59100, 3.0969, 34.5910, 31.4117, 137.50, 1.4181, 1454.99, 347.10, 332.0, 11.78, 15.3, 52
2008/04/17, 00:35:43, 262.50, 0.00, -11.99, -11.50, 992.4, 79.0295620, 11.3757900, , 32.40, 1.17, 331.10, 993.86, 3.90, 0.0, 38.54, 75.31, 80.6, 359, 15.8, 31.40960, 34.59180, 3.0938, 34.5918, 31.4096, 135.90, 1.4188, 1454.99, 354.40, 328.1, 11.41, 15.3, 52
2008/04/17, 00:36:43, 261.70, 0.00, -11.82, -11.40, 992.4, 79.0295930, 11.3758770, , 335.10, 0.49, 330.20, 993.67, 3.70, 0.0, 38.54, 74.50, 83.3, 1, 17.2, 31.41370, 34.59140, 3.0988, 34.5914, 31.4137, 137.70, 1.4195, 1455.00, 340.20, 326.8, 12.16, 16.8, 52
2008/04/17, 00:37:43, 262.70, 0.00, -11.99, -11.40, 992.4, 79.0295970, 11.3761120, , 29.70, 0.36, 331.10, 993.25, 3.90, 0.0, 38.54, 74.60, 82.1, 2, 14.2, 31.43620, 34.59060, 3.1251, 34.5906, 31.4362, 138.40, 1.4202, 1455.00, 342.00, 331.4, 13.19, 14.4, 52
2008/04/17, 00:38:44, 260.70, 0.00, -12.02, -11.40, 992.4, 79.0296180, 11.3762130, , 352.90, 1.07, 329.40, 993.14, 3.70, 0.0, 38.54, 74.32, 81.4, 2, 15.7, 31.41730, 34.59180, 3.1025, 34.5918, 31.4173, 138.00, 1.4214, 1455.01, 348.60, 329.7, 11.76, 15.6, 52
2008/04/17, 00:39:43, 261.60, 0.00, -11.74, -11.20, 992.4, 79.0296200, 11.3762550, , 69.30, 1.12, 332.20, 993.56, 3.90, 0.0, 38.54, 74.83, 85.3, 6, 13.2, 31.41050, 34.59220, 3.0944, 34.5922, 31.4105, 138.40, 1.4226, 1455.01, 348.40, 339.0, 11.67, 14.1, 52
2008/04/17, 00:40:43, 259.80, 0.00, -11.44, -10.90, 992.8, 79.0296280, 11.3764270, , 351.70, 0.57, 328.30, 993.80, 4.20, 0.0, 38.54, 76.79, 86.2, 9, 16.7, 31.41010, 34.59210, 3.0941, 34.5921, 31.4101, 139.60, 1.4233, 1455.02, 346.20, 336.3, 10.79, 16.6, 52
2008/04/17, 00:41:43, 259.70, 0.00, -11.66, -11.00, 992.3, 79.0296470, 11.3762070, , 223.60, 0.95, 328.60, 993.66, 3.90, 0.0, 38.54, 77.27, 82.7, 3, 15.9, 31.42570, 34.59160, 3.1123, 34.5916, 31.4257, 137.70, 1.4243, 1455.02, 349.80, 329.4, 12.72, 15.7, 52
2008/04/17, 00:42:43, 261.70, 0.00, -11.82, -11.20, 992.3, 79.0295920, 11.3762000, , 23.30, 1.22, 331.80, 993.57, 3.80, 0.0, 38.54, 75.28, 83.5, 5, 14.8, 31.41370, 34.59140, 3.0988, 34.5914, 31.4137, 139.00, 1.4261, 1455.03, 350.30, 335.6, 11.12, 14.9, 52
2008/04/17, 00:43:43, 262.10, 0.00, -12.08, -11.30, 992.5, 79.0296270, 11.3761600, , 15.60, 1.41, 329.80, 993.62, 3.80, 0.0, 38.54, 74.45, 82.6, 359, 14.6, 31.40830, 34.59160, 3.0925, 34.5916, 31.4083, 138.70, 1.4277, 1455.04, 347.90, 328.3, 11.22, 14.2, 52
2008/04/17, 00:44:43, 261.10, 0.00, -12.02, -11.30, 992.3, 79.0296330, 11.3763220, , 11.50, 1.66, 329.70, 993.58, 4.10, 0.0, 38.54, 74.42, 82.8, 2, 17.0, 31.41150, 34.59120, 3.0965, 34.5912, 31.4115, 140.80, 1.4289, 1455.04, 341.30, 329.6, 11.91, 17.2, 52
2008/04/17, 00:45:43, 259.90, 0.00, -12.02, -11.30, 992.5, 79.0296670, 11.3763170, , 295.00, 0.73, 329.70, 993.52, 3.80, 0.0, 38.54, 74.53, 81.0, 2, 15.5, 31.41570, 34.59300, 3.0996, 34.5930, 31.4157, 139.60, 1.4289, 1455.04, 345.90, 329.9, 12.77, 15.3, 52
2008/04/17, 00:46:43, 264.00, 0.00, -12.10, -11.50, 992.4, 79.0296330, 11.3763480, , 130.20, 0.25, 329.90, 993.56, 3.70, 0.0, 38.54, 73.54, 80.7, 1, 15.7, 31.41300, 34.59280, 3.0967, 34.5928, 31.4130, 139.60, 1.4281, 1455.04, 346.00, 329.6, 12.52, 16.1, 52
2008/04/17, 00:47:43, 259.60, 0.00, -11.85, -11.30, 992.3, 79.0296250, 11.3763580, , 96.90, 0.66, 329.70, 993.68, 4.00, 0.0, 38.54, 74.88, 84.5, 1, 16.6, 31.40880, 34.59200, 3.0927, 34.5920, 31.4088, 139.20, 1.4272, 1455.03, 346.90, 328.8, 12.08, 16.6, 52
2008/04/17, 00:48:43, 260.40, 0.00, -11.91, -11.20, 992.5, 79.0296520, 11.3762400, , 6.10, 0.56, 330.00, 993.40, 4.00, 0.0, 38.54, 76.24, 83.9, 6, 14.8, 31.40790, 34.59160, 3.0921, 34.5916, 31.4079, 138.40, 1.4258, 1455.03, 341.90, 334.7, 12.22, 14.6, 52
2008/04/17, 00:49:43, 260.80, 0.00, -11.71, -11.10, 992.6, 79.0295980, 11.3761300, , 359.90, 1.06, 330.50, 993.75, 3.90, 0.0, 38.54, 76.87, 84.0, 7, 17.9, 31.41510, 34.59130, 3.1005, 34.5913, 31.4151, 140.20, 1.4250, 1455.02, 349.30, 332.8, 11.34, 17.6, 52
2008/04/17, 00:50:43, 261.30, 0.00, -12.13, -11.40, 992.5, 79.0295980, 11.3759420, , 305.90, 0.61, 329.30, 993.53, 3.70, 0.0, 38.54, 75.74, 81.2, 6, 15.4, 31.41190, 34.59120, 3.0970, 34.5912, 31.4119, 138.70, 1.4248, 1455.02, 349.50, 334.4, 12.57, 15.3, 52
2008/04/17, 00:51:43, 261.90, 0.00, -12.19, -11.60, 992.5, 79.0295620, 11.3754800, , 341.30, 0.44, 329.00, 993.84, 3.70, 0.0, 38.54, 73.87, 80.1, 5, 17.5, 31.43310, 34.59280, 3.1196, 34.5928, 31.4331, 141.70, 1.4242, 1455.02, 353.00, 333.4, 12.59, 17.3, 52
2008/04/17, 00:52:43, 262.30, 0.00, -12.19, -11.60, 992.5, 79.0294980, 11.3751180, , 198.10, 0.28, 331.80, 993.73, 3.90, 0.0, 38.54, 74.02, 82.0, 0, 15.9, 31.41980, 34.59160, 3.1056, 34.5916, 31.4198, 142.00, 1.4247, 1455.02, 349.40, 330.2, 11.83, 15.4, 52
2008/04/17, 00:53:43, 262.00, 0.00, -11.94, -11.40, 992.5, 79.0294670, 11.3748770, , 220.30, 0.96, 330.80, 993.51, 4.00, 0.0, 38.54, 75.18, 83.6, 2, 13.7, 31.41640, 34.59170, 3.1016, 34.5917, 31.4164, 139.90, 1.4247, 1455.02, 348.40, 327.5, 11.50, 13.2, 52
2008/04/17, 00:54:43, 263.00, 0.00, -11.82, -11.30, 992.8, 79.0294750, 11.3749100, , 122.60, 0.83, 330.40, 993.80, 4.20, 0.0, 38.54, 75.41, 84.0, 2, 13.9, 31.42050, 34.59270, 3.1053, 34.5927, 31.4205, 139.60, 1.4248, 1455.02, 344.80, 328.6, 11.14, 13.9, 52
2008/04/17, 00:55:43, 262.90, 0.00, -11.80, -11.20, 992.9, 79.0294930, 11.3750350, , 309.80, 0.50, 330.40, 993.64, 4.30, 0.0, 38.54, 75.31, 83.5, 357, 15.5, 31.44940, 34.59230, 3.1386, 34.5923, 31.4494, 140.80, 1.4238, 1455.02, 348.20, 323.9, 10.67, 15.1, 52
2008/04/17, 00:56:43, 263.60, 0.00, -11.91, -11.20, 992.4, 79.0294970, 11.3751370, , 35.60, 1.19, 329.40, 993.46, 4.10, 0.0, 38.54, 75.28, 82.8, 8, 13.9, 31.41860, 34.59300, 3.1029, 34.5930, 31.4186, 139.00, 1.4238, 1455.02, 342.20, 336.6, 11.51, 14.5, 52
2008/04/17, 00:57:43, 263.60, 0.00, -12.05, -11.30, 992.3, 79.0294900, 11.3752100, , 27.30, 1.47, 330.80, 993.36, 4.20, 0.0, 38.54, 74.88, 82.0, 0, 18.0, 31.41450, 34.59190, 3.0993, 34.5919, 31.4145, 139.00, 1.4240, 1455.02, 348.10, 328.7, 11.96, 18.3, 52
2008/04/17, 00:58:43, 261.30, 0.00, -12.22, -11.50, 992.6, 79.0295330, 11.3754670, , 312.90, 0.64, 330.60, 993.77, 4.10, 0.0, 38.54, 74.22, 80.0, 356, 16.4, 31.43380, 34.59310, 3.1201, 34.5931, 31.4338, 141.10, 1.4240, 1455.02, 342.50, 321.7, 13.06, 16.3, 52
2008/04/17, 00:59:43, 260.70, 0.00, -12.16, -11.50, 992.4, 79.0295920, 11.3759030, , 9.10, 1.27, 329.80, 993.73, 3.90, 0.0, 38.54, 73.62, 81.6, 358, 16.3, 31.42940, 34.59290, 3.1153, 34.5929, 31.4294, 139.00, 1.4233, 1455.02, 339.60, 324.4, 12.70, 16.1, 52
2008/04/17, 01:00:43, 259.30, 0.00, -12.33, -11.60, 992.8, 79.0296270, 11.3762280, , 57.60, 0.88, 330.50, 993.77, 4.20, 0.0, 38.54, 74.12, 81.3, 6, 15.8, 31.45890, 34.59200, 3.1496, 34.5920, 31.4589, 137.70, 1.4222, 1455.01, 340.90, 333.0, 12.21, 15.9, 52
2008/04/17, 01:01:44, 267.60, 0.00, -12.35, -11.60, 992.6, 79.0296530, 11.3762680, , 305.80, 0.47, 329.50, 993.75, 4.40, 0.0, 38.54, 74.83, 82.9, 358, 16.4, 31.43290, 34.59080, 3.1212, 34.5908, 31.4329, 138.40, 1.4207, 1455.00, 353.10, 325.0, 11.88, 16.2, 52
2008/04/17, 01:02:44, 259.70, 0.00, -12.47, -11.70, 992.6, 79.0296250, 11.3762470, , 142.80, 1.59, 330.50, 993.72, 4.30, 0.0, 38.54, 74.15, 79.3, 358, 13.7, 31.43370, 34.59170, 3.1212, 34.5917, 31.4337, 139.90, 1.4202, 1455.00, 343.30, 324.6, 13.78, 13.9, 52
2008/04/17, 01:03:43, 261.10, 0.00, -12.52, -11.90, 992.8, 79.0296150, 11.3760480, , 57.90, 0.49, 330.40, 993.80, 4.40, 0.0, 38.54, 72.27, 78.3, 2, 15.4, 31.41170, 34.59180, 3.0961, 34.5918, 31.4117, 139.00, 1.4210, 1455.01, 345.50, 330.2, 11.82, 15.1, 52
2008/04/17, 01:04:43, 266.80, 0.00, -12.27, -11.80, 992.6, 79.0296000, 11.3759550, , 343.60, 1.18, 330.60, 994.02, 4.40, 0.0, 38.54, 72.58, 80.7, 0, 15.5, 31.40950, 34.59270, 3.0928, 34.5927, 31.4095, 139.00, 1.4219, 1455.01, 347.70, 326.7, 11.49, 15.2, 52
2008/04/17, 01:05:43, 262.60, 0.00, -12.27, -11.70, 992.7, 79.0296020, 11.3759980, , 147.20, 1.01, 329.40, 993.59, 4.60, 0.0, 38.54, 73.41, 81.7, 4, 17.1, 31.40800, 34.59310, 3.0907, 34.5931, 31.4080, 139.90, 1.4212, 1455.01, 342.40, 331.9, 11.80, 17.4, 52
2008/04/17, 01:06:43, 260.30, 0.00, -12.52, -11.80, 992.9, 79.0296120, 11.3758570, , 136.90, 0.43, 330.40, 993.79, 4.70, 0.0, 38.54, 73.92, 78.8, 356, 12.3, 31.41730, 34.59210, 3.1022, 34.5921, 31.4173, 139.60, 1.4213, 1455.01, 353.00, 325.3, 12.10, 12.5, 52
2008/04/17, 01:07:43, 261.30, 0.00, -12.13, -11.70, 992.7, 79.0295700, 11.3758450, , 236.70, 0.79, 329.70, 993.80, 5.10, 0.0, 38.54, 73.82, 82.7, 8, 15.5, 31.41300, 34.59260, 3.0970, 34.5926, 31.4130, 140.80, 1.4218, 1455.01, 347.20, 335.0, 10.04, 15.0, 52
2008/04/17, 01:08:43, 261.90, 0.00, -11.96, -11.40, 992.8, 79.0295730, 11.3761200, , 19.90, 1.92, 330.80, 994.02, 5.20, 0.0, 38.54, 75.81, 84.3, 359, 15.7, 31.41060, 34.59280, 3.0940, 34.5928, 31.4106, 142.90, 1.4215, 1455.01, 342.70, 329.1, 10.16, 16.3, 52
2008/04/17, 01:09:44, 259.60, 0.00, -12.13, -11.40, 993.0, 79.0296580, 11.3762230, , 108.70, 0.59, 328.30, 994.15, 5.50, 0.0, 38.54, 75.76, 81.9, 4, 16.8, 31.41110, 34.59260, 3.0947, 34.5926, 31.4111, 140.80, 1.4205, 1455.00, 340.10, 329.2, 11.50, 17.4, 52
2008/04/17, 01:10:43, 260.40, 0.00, -12.41, -11.60, 992.7, 79.0296330, 11.3764870, , 35.90, 1.42, 331.30, 993.97, 5.50, 0.0, 38.54, 73.31, 78.3, 358, 16.5, 31.43200, 34.59230, 3.1188, 34.5923, 31.4320, 142.90, 1.4190, 1455.00, 344.80, 325.2, 11.45, 16.0, 52
2008/04/17, 01:11:43, 258.80, 0.00, -12.35, -11.70, 992.8, 79.0296800, 11.3767100, , 88.30, 0.76, 330.00, 993.94, 5.60, 0.0, 38.54, 72.07, 79.0, 1, 15.3, 31.42200, 34.59160, 3.1080, 34.5916, 31.4220, 143.90, 1.4180, 1454.99, 336.90, 327.6, 12.01, 15.2, 52
2008/04/17, 01:12:43, 258.80, 0.00, -12.27, -11.70, 992.7, 79.0296950, 11.3768520, , 48.70, 0.66, 330.50, 994.07, 5.80, 0.0, 38.54, 72.45, 77.9, 5, 15.1, 31.40760, 34.59300, 3.0904, 34.5930, 31.4076, 139.20, 1.4183, 1454.99, 346.70, 331.1, 11.70, 15.3, 52
2008/04/17, 01:13:43, 259.80, 0.00, -12.27, -11.80, 992.7, 79.0297170, 11.3769730, , 15.00, 1.18, 330.90, 993.91, 5.80, 0.0, 38.54, 71.81, 78.9, 356, 16.8, 31.41490, 34.59210, 3.0995, 34.5921, 31.4149, 140.50, 1.4191, 1455.00, 347.80, 324.5, 10.97, 17.1, 52
2008/04/17, 01:14:43, 256.90, 0.00, -12.33, -11.70, 992.6, 79.0297330, 11.3773050, , 175.30, 0.68, 329.90, 993.71, 6.10, 0.0, 38.54, 73.08, 79.8, 359, 15.0, 31.40710, 34.59190, 3.0909, 34.5919, 31.4071, 141.40, 1.4201, 1455.00, 337.50, 327.2, 12.72, 14.7, 52
2008/04/17, 01:15:43, 257.60, 0.00, -12.44, -11.70, 992.9, 79.0297550, 11.3773670, , 27.80, 0.38, 329.70, 993.94, 5.90, 0.0, 38.54, 72.93, 78.9, 2, 16.1, 31.40680, 34.59270, 3.0897, 34.5927, 31.4068, 141.10, 1.4204, 1455.01, 349.50, 329.7, 11.38, 16.1, 52
2008/04/17, 01:16:43, 258.10, 0.00, -12.38, -11.70, 992.9, 79.0297550, 11.3776070, , 351.70, 1.12, 329.70, 993.93, 6.00, 0.0, 38.54, 72.93, 78.9, 0, 15.7, 31.40270, 34.59210, 3.0857, 34.5921, 31.4027, 139.90, 1.4207, 1455.00, 343.10, 327.3, 11.60, 15.3, 52
2008/04/17, 01:17:43, 258.10, 0.00, -12.35, -11.80, 993.1, 79.0297780, 11.3776250, , 51.80, 1.19, 330.40, 994.08, 6.10, 0.0, 38.54, 72.70, 78.5, 359, 16.1, 31.41370, 34.59190, 3.0984, 34.5919, 31.4137, 140.20, 1.4208, 1455.01, 346.20, 327.3, 11.70, 16.4, 52
2008/04/17, 01:18:43, 256.20, 0.00, -12.58, -11.80, 993.0, 79.0297850, 11.3778650, , 197.70, 0.58, 330.60, 993.88, 6.20, 0.0, 38.54, 71.94, 77.7, 353, 16.0, 31.41540, 34.59230, 3.0999, 34.5923, 31.4154, 140.20, 1.4206, 1455.00, 345.10, 319.6, 12.18, 16.0, 52
2008/04/17, 01:19:43, 259.10, 0.00, -12.22, -11.80, 992.9, 79.0298400, 11.3779870, , 10.20, 0.82, 329.40, 993.96, 6.30, 0.0, 38.54, 72.14, 79.1, 6, 17.0, 31.41050, 34.59210, 3.0945, 34.5921, 31.4105, 139.00, 1.4208, 1455.01, 338.30, 334.3, 11.50, 17.0, 52
2008/04/17, 01:20:43, 255.50, 0.00, -12.33, -11.70, 993.0, 79.0297900, 11.3781200, , 137.90, 1.14, 331.60, 994.36, 6.40, 0.0, 38.54, 72.83, 81.3, 3, 14.7, 31.39950, 34.59180, 3.0823, 34.5918, 31.3995, 141.70, 1.4213, 1455.01, 350.70, 331.1, 12.54, 14.6, 52
2008/04/17, 01:21:43, 255.80, 0.00, -11.85, -11.50, 992.7, 79.0298550, 11.3782920, , 48.80, 0.37, 329.30, 994.07, 6.60, 0.0, 38.54, 74.98, 82.4, 359, 12.3, 31.39580, 34.59130, 3.0786, 34.5913, 31.3958, 138.40, 1.4220, 1455.01, 343.70, 325.2, 11.70, 12.0, 52
2008/04/17, 01:22:43, 256.00, 0.00, -12.05, -11.50, 992.9, 79.0298700, 11.3785220, , 16.50, 0.52, 329.90, 994.12, 6.50, 0.0, 38.54, 75.11, 82.2, 1, 17.1, 31.40910, 34.59170, 3.0934, 34.5917, 31.4091, 138.00, 1.4219, 1455.01, 341.90, 327.6, 10.84, 17.2, 52
2008/04/17, 01:23:43, 254.50, 0.00, -12.44, -11.70, 993.2, 79.0298950, 11.3786800, , 173.70, 0.68, 330.40, 994.15, 6.60, 0.0, 38.54, 73.79, 78.4, 358, 15.7, 31.40300, 34.59150, 3.0866, 34.5915, 31.4030, 138.00, 1.4222, 1455.01, 342.60, 324.7, 12.07, 15.5, 52
2008/04/17, 01:24:43, 254.10, 0.00, -12.44, -11.70, 992.9, 79.0299020, 11.3787630, , 198.80, 0.57, 329.90, 994.04, 6.60, 0.0, 38.54, 72.98, 80.3, 2, 15.4, 31.39660, 34.59180, 3.0790, 34.5918, 31.3966, 138.40, 1.4216, 1455.01, 342.80, 327.6, 11.80, 15.1, 52
2008/04/17, 01:25:43, 255.30, 0.00, -12.38, -11.80, 992.8, 79.0298970, 11.3790300, , 358.80, 1.00, 330.30, 994.25, 6.80, 0.0, 38.54, 73.13, 79.1, 1, 16.8, 31.39760, 34.59410, 3.0780, 34.5941, 31.3976, 140.80, 1.4211, 1455.01, 345.20, 329.4, 11.18, 16.9, 52
2008/04/17, 01:26:43, 258.90, 0.00, -12.24, -11.80, 993.2, 79.0299470, 11.3789620, , 60.90, 0.19, 329.40, 994.14, 7.00, 0.0, 38.54, 72.50, 81.0, 2, 16.2, 31.40080, 34.59250, 3.0831, 34.5925, 31.4008, 140.20, 1.4200, 1455.00, 345.30, 329.2, 11.27, 16.6, 52
2008/04/17, 01:27:43, 257.60, 0.00, -12.35, -11.70, 993.0, 79.0299120, 11.3789400, , 3.30, 0.63, 330.40, 994.06, 7.30, 0.0, 38.54, 73.62, 80.3, 359, 15.5, 31.41300, 34.59150, 3.0980, 34.5915, 31.4130, 139.00, 1.4190, 1455.00, 344.30, 327.4, 11.36, 15.4, 52
2008/04/17, 01:28:43, 254.30, 0.00, -12.80, -11.90, 993.0, 79.0299100, 11.3788680, , 129.50, 0.58, 331.40, 994.18, 7.40, 0.0, 38.54, 71.79, 77.8, 4, 14.9, 31.40000, 34.59200, 3.0826, 34.5920, 31.4000, 140.20, 1.4170, 1454.99, 346.20, 332.6, 12.26, 14.5, 52
2008/04/17, 01:29:43, 255.40, 0.00, -12.47, -11.90, 993.0, 79.0298950, 11.3787680, , 355.60, 0.33, 329.70, 994.17, 7.80, 0.0, 38.54, 71.76, 79.1, 359, 15.3, 31.39630, 34.59180, 3.0787, 34.5918, 31.3963, 140.20, 1.4156, 1454.98, 352.70, 326.2, 11.08, 15.1, 52
2008/04/17, 01:30:43, 254.30, 0.00, -12.55, -11.90, 993.0, 79.0298930, 11.3788020, , 187.80, 0.78, 330.10, 994.08, 7.90, 0.0, 38.54, 72.17, 78.1, 6, 15.0, 31.40460, 34.59270, 3.0872, 34.5927, 31.4046, 141.10, 1.4148, 1454.98, 343.70, 331.9, 12.20, 14.8, 52